Weather Service Report


390 
ASUS41 KBOX 240910
RWRBOX

REGIONAL WEATHER ROUNDUP
NATIONAL WEATHER SERVICE TAUNTON MA
400 AM EST TUE JAN 24 2017

NOTE:  "FAIR" INDICATES FEW OR NO CLOUDS BELOW 12,000 FEET WITH NO 
SIGNIFICANT WEATHER AND/OR OBSTRUCTIONS TO VISIBILITY.

MAZALL-241000-
EASTERN MASSACHUSETTS
  
CITY           SKY/WX    TMP DP  RH WIND       PRES   REMARKS
BOSTON         HVY RAIN  38  37  97 NE39G47   29.62F FOG     WCI  24  
BEVERLY        RAIN      37  36  96 NE22G32   29.63F FOG     WCI  26  
LAWRENCE       LGT RAIN  34  32  92 NE26G37   29.67F FOG     WCI  21  
BEDFORD        LGT RAIN  35  31  85 NE18G37   29.61F FOG     WCI  24  
BLUE HILL        N/A     35  35 100 NE35G54   29.51F WCI  21          
NORWOOD        RAIN      39  37  92 NE18G36   29.58F FOG     WCI  30  
MARSHFIELD     LGT RAIN  41  41 100 NE21G33   29.58F WCI  32          
PLYMOUTH       RAIN      40  39  97 NE26G40   29.50F FOG     WCI  29  
TAUNTON        LGT RAIN  40  37  89 NE16G28   29.51F FOG     WCI  31  
NEW BEDFORD    RAIN      42  39  89 NE17G33   29.45F FOG              
$$

MAZALL-241000-
CAPE COD AND THE ISLANDS
  
CITY           SKY/WX    TMP DP  RH WIND       PRES   REMARKS
FALMOUTH         N/A    N/A N/A N/A MISG        N/A                   
HYANNIS        LGT RAIN  45  42  89 NE13G30   29.40F FOG              
CHATHAM        LGT RAIN  46  43  89 E29G39    29.42F FOG              
PROVINCETOWN   RAIN      42  41  96 E33G47    29.49F FOG     WCI  31  
NANTUCKET      LGT RAIN  48  45  89 E29G39    29.33F FOG              
MARTHAS VNYRD  HVY RAIN  44  43  96 NE28G38   29.37F FOG              
$$
 
MAZALL-241000-
CENTRAL AND WESTERN MASSACHUSETTS
  
CITY           SKY/WX    TMP DP  RH WIND       PRES   REMARKS
WORCESTER      LGT SNOW  29  27  92 NE17G35   29.53F VSB 3/4 WCI  17  
FITCHBURG      LGT SNOW  32  29  88 N13G21    29.64F VSB 3/4 WCI  22  
ORANGE         LGT SNOW  31  27  85 N13G29    29.60F FOG     WCI  21  
SPRINGFIELD    LGT RAIN  34  27  75 NE21      29.53F WCI  22          
WESTFIELD      MIX PCPN  31  32 100 N12G21    29.55S WCI  22          
NORTH ADAMS    MIX PCPN  32  24  72 E13G29    29.55F WCI  22          
PITTSFIELD     MIX PCPN  30  24  78 NE25G37   29.47F WCI  16          
$$
 
RIZALL-241000-
RHODE ISLAND
  
CITY           SKY/WX    TMP DP  RH WIND       PRES   REMARKS
PROVIDENCE     RAIN      39  36  89 NE25G36   29.49F FOG     WCI  28  
NEWPORT        RAIN      40  39  97 NE24G44   29.42F FOG     WCI  29  
SMITHFIELD     RAIN      37  35  92 NE21G35   29.51F FOG     WCI  26  
WESTERLY       LGT RAIN  41  36  82 NE24G47   29.37F WCI  31          
$$
 
CTZALL-241000-
CONNECTICUT
  
CITY           SKY/WX    TMP DP  RH WIND       PRES   REMARKS
BRADLEY INTL   LGTSLEET  34  30  85 NE23G32   29.51F FOG     WCI  22  
HARTFORD       LGT SNOW  34  31  88 N15       29.47F FOG     WCI  24  
BRIDGEPORT     LGT RAIN  38  33  82 NE25G37   29.36F WCI  27          
DANBURY        LGT RAIN  34  30  85 NE22G35   29.40F WCI  22          
GROTON         LGT RAIN  40  39  97 NE32G46   29.33F FOG     WCI  28  
NEW HAVEN      CLOUDY    38  34  85 NE25G36   29.35F WCI  27          
CHESTER        CLOUDY    37  36  93 NE18G35   29.37F FOG     WCI  27  
MERIDEN        LGT RAIN  35  31  85 N15G25    29.43F WCI  25          
WILLIMANTIC    RAIN      38  34  85 NE20G37   29.45F FOG     WCI  28  
OXFORD         CLOUDY    34  28  80 NE28G43   29.36R WCI  20          
$$

MEZ002-015-021-024-NHZ003-005-008-011-012-014-VTZ005-008-241000-
NORTHERN NEW ENGLAND
  
CITY           SKY/WX    TMP DP  RH WIND       PRES   REMARKS
PORTLAND ME    FRZ RAIN  30  25  81 NE20G31   29.81F WCI  17          
BANGOR ME      CLOUDY    28  20  71 NE16      29.97F WCI  16          
CONCORD NH     MIX PCPN  30  25  81 NE15G21   29.72F WCI  19          
MANCHESTER NH  NOT AVBL                                               
NASHUA NH      NOT AVBL                                               
PORTSMOUTH NH  FRZ RAIN  31  28  89 NE14G24   29.70F FOG     WCI  20  
JAFFREY NH     NOT AVBL                                               
KEENE NH       NOT AVBL                                               
BURLINGTON VT  FRZ RAIN  31  27  85 N7        29.76F WCI  24          
MT. WASHINGTON SNOW      14  14 100 E56G64      N/A  VSB 1/16WCI -12  
$$

NYZ052-076-241000-
EASTERN NEW YORK
  
CITY           SKY/WX    TMP DP  RH WIND       PRES   REMARKS
ALBANY         SLEET     33  30  88 N9        29.58F FOG     WCI  25  
NEW YORK CITY  LGT RAIN  39  35  86 NE21G32   29.35F FOG     WCI  29  
$$
 
ANZALL-241000-
MARINE OBSERVATIONS
  
STATION/POSITION TIME  TEMP    WIND        PRES    VSBY  WAVE
                       AIR SEA DIR/SP/G                  HT/PER
                 (UTC) (F)     (DEG/KT/KT) (MB)    (MI)  (FT/S)
BOSTON BUOY      0750   40 43   50/ 31/ 39 1002.6         18/10
BUZZARDS BAY     0800   40      40/ 38/ 42  996.1F
NANTUCKET SOUND  0750   46 44   70/ 33/ 41  994.1          6/ 5
MASS BAY-STELLWA 0804   40 45   50/ 31/ 41 1004.1F   1/2
ISLE OF SHOALS   0800   36      50/ 40/ 45 1004.8F
S OF BLOCK IS    0855      46                N/A          14/11
$$

......................KEY.........................
  SKY/WX - SKY CONDITION/PRESENT WEATHER
  TMP    - TEMPERATURE IN FAHRENHEIT
  DWPT   - DEWPOINT IN FAHRENHEIT
  RH     - RELATIVE HUMIDITY IN PERCENT
  WIND   - DIRECTION AND SPEED IN MPH
  PRES   - MEAN SEA LEVEL PRESSURE IN INCHES OF HG
  WCI    - WIND CHILL INDEX
  VSB    - VISIBILITY IN MILES
  HX     - HEAT INDEX
  TC     - TEMPERATURE IN CELSIUS
  VRB    - VARIABLE WIND DIRECTION
  N/A    - NOT AVAILABLE
  

Return to Home page


Western Regional Climate Center, wrcc@dri.edu